Weather History for KPYM - February, 2013

Change the Weather History Date:

Thursday, February 21, 2013

  Actual Average (WUND) Record (WUND)
Temperature  
Mean Temperature 30 °F -  
Max Temperature 34 °F - - (-1)
Min Temperature 26 °F - - (-1)
Degree Days  
Heating Degree Days 35    
Moisture  
Dew Point 13 °F    
Average Humidity 51    
Maximum Humidity 58    
Minimum Humidity 40    
Precipitation  
Precipitation 0.00 in - - ()
Sea Level Pressure  
Sea Level Pressure 29.88 in    
Wind  
Wind Speed 12 mph (WNW)    
Max Wind Speed 20 mph    
Max Gust Speed 30 mph    
Visibility 10 miles    
Events      
Averages and records for this station are not official NWS values.
T = Trace of Precipitation, MM = Missing Value Source: NWS Daily Summary

Daily Weather History Graph

Daily Weather History Graph

Search for Another Location

Airport or City:

Trip Planner

Search our weather history database for the weather conditions in past years. The results will help you decide how hot, cold, wet, or windy it might be!

Date:

Astronomy

Feb. 21, 2013 Rise Set
Actual Time 6:29 AM EST 5:23 PM EST
Civil Twilight 6:01 AM EST 5:52 PM EST
Nautical Twilight 5:29 AM EST 6:24 PM EST
Astronomical Twilight 4:56 AM EST 6:56 PM EST
Moon 1:33 PM EST (2/21) 3:34 AM EST (2/21)
Length of Visible Light 11h 50m
Length of Day
10h 53m
Waxing Gibbous, 83% of the Moon is Illuminated
Feb 21
Waxing Gibbous
Feb 25
Full
Mar 4
Last Quarter
Mar 11
New
Mar 19
First Quarter

Hourly Weather History & Observations

Time (EST) Temp. Windchill Dew Point Humidity Pressure Visibility Wind Dir Wind Speed Gust Speed Precip Events Conditions
12:52 AM 26.1 °F 17.6 °F 12.0 °F 55% 29.81 in 10.0 mi West 8.1 mph - N/A   Clear
1:52 AM 27.0 °F 16.7 °F 12.9 °F 56% 29.81 in 10.0 mi West 11.5 mph - N/A   Mostly Cloudy
2:52 AM 27.0 °F 16.1 °F 12.9 °F 56% 29.80 in 10.0 mi WSW 12.7 mph - N/A   Clear
3:52 AM 27.0 °F 18.0 °F 14.0 °F 58% 29.81 in 10.0 mi WSW 9.2 mph - N/A   Overcast
4:52 AM 26.1 °F 15.6 °F 12.9 °F 58% 29.81 in 10.0 mi West 11.5 mph - N/A   Scattered Clouds
5:52 AM 26.1 °F 15.0 °F 12.9 °F 58% 29.82 in 10.0 mi WSW 12.7 mph - N/A   Mostly Cloudy
6:52 AM 26.1 °F 17.6 °F 12.0 °F 55% 29.83 in 10.0 mi West 8.1 mph 18.4 mph N/A   Partly Cloudy
8:52 AM 26.1 °F 15.0 °F 10.9 °F 53% 29.82 in 10.0 mi West 12.7 mph 18.4 mph N/A   Overcast
9:52 AM 28.0 °F 16.5 °F 12.0 °F 51% 29.81 in 10.0 mi West 15.0 mph 25.3 mph N/A   Clear
10:52 AM 30.9 °F 21.7 °F 12.0 °F 46% 29.81 in 10.0 mi WNW 11.5 mph - N/A   Clear
11:52 AM 32.0 °F 20.5 °F 12.0 °F 44% 29.80 in 10.0 mi WNW 18.4 mph 26.5 mph N/A   Mostly Cloudy
12:52 PM 33.1 °F 21.5 °F 12.0 °F 42% 29.79 in 10.0 mi NW 19.6 mph 29.9 mph N/A   Partly Cloudy
1:52 PM 34.0 °F 23.0 °F 12.0 °F 40% 29.79 in 10.0 mi NW 18.4 mph 28.8 mph N/A   Scattered Clouds
2:52 PM 34.0 °F 26.0 °F 12.0 °F 40% 29.81 in 10.0 mi NNW 10.4 mph 20.7 mph N/A   Clear
3:52 PM 34.0 °F 25.0 °F 12.0 °F 40% 29.83 in 10.0 mi NNW 12.7 mph 21.9 mph N/A   Clear
4:52 PM 32.0 °F 20.8 °F 10.9 °F 42% 29.88 in 10.0 mi NW 17.3 mph 21.9 mph N/A   Scattered Clouds
5:52 PM 30.0 °F 20.0 °F 12.0 °F 47% 29.92 in 10.0 mi NW 12.7 mph 20.7 mph N/A   Mostly Cloudy
6:52 PM 30.0 °F 20.0 °F 12.0 °F 47% 29.97 in 10.0 mi NNW 12.7 mph 24.2 mph N/A   Overcast
7:52 PM 28.9 °F 18.6 °F 12.0 °F 49% 30.00 in 10.0 mi NNW 12.7 mph 21.9 mph N/A   Scattered Clouds
8:52 PM 28.0 °F 17.5 °F 12.9 °F 53% 30.04 in 10.0 mi NNW 12.7 mph 25.3 mph N/A   Clear
9:52 PM 28.0 °F 17.0 °F 14.0 °F 56% 30.07 in 10.0 mi NNW 13.8 mph 21.9 mph N/A   Clear
10:52 PM 28.0 °F 17.5 °F 15.1 °F 58% 30.10 in 10.0 mi NW 12.7 mph - N/A   Clear
11:52 PM 28.9 °F 19.2 °F 16.0 °F 58% 30.14 in 10.0 mi NW 11.5 mph 18.4 mph N/A   Overcast